Location: Andershausen
(51.8462°N, 9.8595°E)
Time: 10:08:29
(UTC+00:00)

Cosmos 2034 Rocket - Pass Details

Date: 18 November 2025
Orbit: 958 x 998 km, 82.9° (Epoch: 12 December)

Event Time Altitude Azimuth Distance (km) Brightness Sun altitude
Rises 17:56:04 0° 185° (S) 3,643 7.1 -22.8°
Reaches altitude 10° 17:58:33 10° 184° (S) 2,705 6.4 -23.2°
Maximum altitude 18:04:45 83° 98° (E) 990 3.9 -24.2°
Drops below altitude 10° 18:11:04 10° 11° (NNE) 2,751 6.2 -25.1°
Sets 18:13:37 0° 11° (NNE) 3,710 6.9 -25.5°
